[[{"header":{"parameterUnit":"m.s-1","parameterCategory":2,"la1":30.2992,"la2":30.254,"lo1":-89.0895,"lo2":-89.0443,"dy":0.0025,"dx":0.0025,"nx":19,"ny":19,"refTime":"2026-03-20T03:00:00:Z","depth":"0","parameterNumber":2,"parameterNumberName":"U-component_of_CURRENTS"},"data":[0,0,0,0.3146,0.3145,0.3133,0.3133,0.3069,0.3068,0,0,0,0,0,0,0,0,0,0,0,0.3161,0.3161,0.3146,0.3145,0.3133,0.3133,0.3069,0.3068,0,0,0,0,0,0,0,0,0,0,0,0.3161,0.3161,0.3161,0.3145,0.3133,0.3133,0.3069,0.3093,0,0,0,0,0,0,0,0,0,0,0.3112,0.3158,0.3161,0.3161,0.3145,0.3133,0.3133,0.3094,0.3091,0.3058,0,0.306,0,0.3052,0.3062,0.3062,0,0,0,0.3154,0.3161,0.3125,0.3161,0.3145,0.3132,0.3141,0.3093,0.3089,0.3054,0.3059,0.3057,0.3051,0.3062,0.3061,0.3153,0.3155,0,0,0.3154,0.3187,0.3128,0.3123,0.3144,0.3141,0.314,0.3091,0.3107,0.3059,0.3055,0.305,0.3061,0.306,0.3151,0.3153,0,0,0,0.315,0.3188,0.3156,0.3126,0.3121,0.314,0.3139,0.311,0.309,0.3055,0.3049,0.306,0.3059,0.3149,0.3152,0.3194,0,0,0,0.3151,0.3184,0.3156,0.3179,0.3123,0.3128,0.3159,0.3094,0.3088,0.3049,0.306,0.3058,0.3148,0.3151,0.3189,0.3168,0,0,0,0.3161,0.3186,0.3178,0.3181,0.3166,0.3128,0.3109,0.3093,0.3083,0.3062,0.3058,0.3146,0.315,0.3184,0.3162,0.3129,0,0,0,0.3203,0.3239,0.318,0.3232,0.3166,0.3221,0.3109,0.3159,0.3162,0.306,0.3148,0.3152,0.3182,0.3158,0.3126,0.2865,0.2855,0,0,0.3273,0.3249,0.328,0.3227,0.3277,0.3223,0.3283,0.3232,0.3207,0.3156,0.3159,0.319,0.3161,0.3128,0.3099,0.3079,0,0,0,0.332,0.3326,0.3343,0.3349,0.3364,0.3346,0.3319,0.3309,0.33,0.322,0.3261,0.3242,0.3218,0.306,0.3048,0.2702,0.317,0.317,0.317,0.3405,0.3398,0.3445,0.3428,0.3461,0.3448,0.3446,0.3424,0.3389,0.3426,0.333,0.3405,0.3245,0.3231,0.2882,0.3414,0.3414,0.3414,0.3415,0.3471,0.3466,0.3479,0.3512,0.349,0.3521,0.351,0.349,0.3456,0.3453,0.3427,0.3181,0.3217,0.2851,0.3418,0.3418,0.3417,0.3417,0.3417,0.3473,0.3465,0.3492,0.3519,0.3526,0.352,0.3476,0.3482,0.348,0.3468,0.324,0.3236,0.2855,0.3442,0.3442,0.3442,0.3441,0.3441,0.3441,0.3437,0.3467,0.347,0.3508,0.3501,0.3477,0.3445,0.3402,0.3296,0.3246,0.3243,0.2837,0.3412,0.3343,0.3439,0.3439,0.3439,0.344,0.344,0.3386,0.3408,0.3422,0.3422,0.3391,0.3272,0.3294,0.309,0.3059,0.2954,0.2539,0.3112,0.3047,0.3055,0.2979,0.2975,0.2975,0.2974,0.2974,0.3331,0.335,0.3341,0.3315,0.326,0.3162,0.2831,0.2638,0.2354,0.2107,0.2159,0.2063,0.2097,0.1973,0.2006,0.1909,0.1632,0.163,0.1629,0.3277,0.3303,0.3262,0.3255,0.3187,0.2974,0.2538,0.2019,0.158,0.155,0.1731,0.1787,0.1634,0.1715,0.1517,0.1589,0.1432,0,0]},{"header":{"parameterUnit":"m.s-1","parameterCategory":2,"la1":30.2992,"la2":30.254,"lo1":-89.0895,"lo2":-89.0443,"dy":0.0025,"dx":0.0025,"nx":19,"ny":19,"refTime":"2026-03-20T03:00:00:Z","depth":"0","parameterNumber":3,"parameterNumberName":"V-component_of_CURRENTS"},"data":[0,0,0,0.0182,0.0185,0.0322,0.0323,0.036,0.036,0,0,0,0,0,0,0,0,0,0,0,0.0121,0.0121,0.0181,0.0185,0.0322,0.0323,0.036,0.036,0,0,0,0,0,0,0,0,0,0,0,0.012,0.0121,0.0122,0.0186,0.0322,0.0323,0.036,0.0288,0,0,0,0,0,0,0,0,0,0,0.0171,0.0107,0.0121,0.0122,0.0187,0.0322,0.0323,0.0286,0.0292,0.0262,0,0.0288,0,0.0333,0.036,0.036,0,0,0,0.0174,0.0102,0.0175,0.0123,0.0188,0.0322,0.0257,0.0291,0.0298,0.0269,0.0289,0.0292,0.0333,0.036,0.036,0.0377,0.0377,0,0,0.0167,0.0108,0.017,0.0179,0.0227,0.0253,0.0262,0.0296,0.028,0.0289,0.0294,0.0334,0.036,0.036,0.0377,0.0377,0,0,0,0.0152,0.0101,0.0176,0.0176,0.0217,0.0257,0.0267,0.0278,0.0313,0.0295,0.0334,0.036,0.036,0.0377,0.0377,0.04,0,0,0,0.0147,0.0096,0.0172,0.0133,0.0218,0.0261,0.0247,0.0311,0.0317,0.0334,0.036,0.036,0.0377,0.0377,0.0399,0.0448,0,0,0,0.0114,0.0091,0.0117,0.013,0.0202,0.0263,0.0299,0.0314,0.0341,0.036,0.036,0.0377,0.0377,0.0398,0.0445,0.0622,0,0,0,0.0035,0.0057,0.0115,0.0142,0.0201,0.0258,0.03,0.0325,0.0337,0.036,0.0377,0.0377,0.0398,0.0444,0.0617,0.069,0.0716,0,0,0.0024,0.0053,0.0074,0.0131,0.0181,0.0238,0.0271,0.031,0.0334,0.0353,0.0355,0.0399,0.0445,0.0621,0.071,0.0736,0,0,0,0.0046,0.0063,0.0083,0.0131,0.0185,0.0247,0.0279,0.0326,0.0387,0.035,0.04,0.0429,0.054,0.0573,0.0593,0.0518,0.0379,0.0379,0.0379,-0.0057,0.0015,0.0045,0.0129,0.016,0.0242,0.0315,0.0386,0.0363,0.0411,0.0446,0.0595,0.0624,0.0642,0.0559,0.0424,0.0424,0.0425,0.0425,-0.0055,-0.0004,0.0047,0.011,0.018,0.0217,0.0357,0.0401,0.0565,0.049,0.0596,0.0591,0.0666,0.0569,0.0426,0.0426,0.0426,0.0425,0.0425,-0.0079,-0.0037,-0.0003,0.0086,0.0161,0.0243,0.0432,0.0512,0.0622,0.0709,0.0834,0.0834,0.0764,0.0781,0.0783,0.0783,0.0784,0.0785,0.0786,-0.0095,-0.0054,-0.0007,0.0079,0.0137,0.0273,0.0496,0.066,0.0864,0.0914,0.0915,0.0802,0.0707,0.0709,0.08,0.0798,0.0796,0.0794,0.0793,-0.0036,-0.0055,0.0021,0.0072,0.0228,0.0433,0.0606,0.0964,0.1136,0.1267,0.1084,0.1061,0.1099,0.1081,0.1093,0.1281,0.1281,0.1281,0.1281,-0.0021,-0.0016,0.0072,0.0164,0.0321,0.0519,0.0904,0.116,0.1292,0.1291,0.1237,0.1098,0.1082,0.1109,0.109,0.1098,0.1283,0.1282,0.1282,0.003,0.004,0.0118,0.0196,0.037,0.0663,0.1036,0.1252,0.1303,0.1269,0.1122,0.1122,0.0893,0.0874,0.0888,0.0868,0.0871,0,0]}],[{"header":{"parameterUnit":"m.s-1","parameterCategory":2,"la1":30.2992,"la2":30.254,"lo1":-89.0895,"lo2":-89.0443,"dy":0.0025,"dx":0.0025,"nx":19,"ny":19,"refTime":"2026-03-20T03:00:00:Z","depth":"2","parameterNumber":2,"parameterNumberName":"U-component_of_CURRENTS"},"data":[0,0,0,0.0994,0.0994,0.0941,0.0941,0.1054,0.1056,0,0,0,0,0,0,0,0,0,0,0,0.1013,0.1014,0.0994,0.0994,0.0942,0.0941,0.1054,0.1056,0,0,0,0,0,0,0,0,0,0,0,0.1013,0.1014,0.1015,0.0994,0.0942,0.0941,0.1053,0.1039,0,0,0,0,0,0,0,0,0,0,0.1064,0.107,0.1014,0.1015,0.0994,0.0942,0.0941,0.1036,0.104,0.1142,0,0.1159,0,0.1135,0.1071,0.1072,0,0,0,0.0955,0.1066,0.1062,0.1015,0.0994,0.0942,0.0954,0.1036,0.1041,0.1149,0.116,0.1163,0.1136,0.1073,0.1074,0.1184,0.1184,0,0,0.0958,0.0993,0.1058,0.1065,0.102,0.0956,0.0953,0.1037,0.106,0.116,0.1164,0.1138,0.1074,0.1076,0.1185,0.1184,0,0,0,0.0993,0.0996,0.0983,0.1062,0.1052,0.0956,0.0952,0.1054,0.1054,0.1165,0.114,0.1076,0.1078,0.1185,0.1185,0.1292,0,0,0,0.0993,0.1018,0.0985,0.1003,0.105,0.103,0.0968,0.1046,0.1055,0.1139,0.1076,0.1081,0.1186,0.1185,0.129,0.1326,0,0,0,0.1009,0.102,0.1026,0.1006,0.1,0.1026,0.1026,0.1045,0.1043,0.1072,0.1081,0.1186,0.1185,0.1288,0.1323,0.141,0,0,0,0.1026,0.1033,0.1027,0.1041,0.1002,0.0984,0.1024,0.1044,0.107,0.1077,0.1186,0.1185,0.1288,0.1321,0.1407,0.1241,0.1242,0,0,0.1031,0.1035,0.104,0.1033,0.1,0.0986,0.1005,0.1077,0.1081,0.1167,0.1168,0.129,0.1323,0.141,0.1172,0.1175,0,0,0,0.1038,0.1039,0.1034,0.1021,0.1009,0.1016,0.1052,0.1107,0.1175,0.1097,0.1236,0.1251,0.1305,0.1195,0.1196,0.1179,0.1179,0.1179,0.1179,0.1013,0.101,0.101,0.101,0.1017,0.1054,0.1114,0.1181,0.1207,0.1248,0.1299,0.1378,0.1257,0.1258,0.1256,0.1257,0.1257,0.1257,0.1258,0.1007,0.1016,0.1015,0.1038,0.1054,0.1094,0.1202,0.1261,0.1406,0.1354,0.1403,0.126,0.1266,0.1265,0.1264,0.1263,0.1262,0.1261,0.1261,0.1035,0.103,0.1075,0.1087,0.1107,0.1147,0.1232,0.1338,0.1469,0.1542,0.1417,0.1412,0.1491,0.1569,0.157,0.157,0.1571,0.1571,0.1572,0.1039,0.1062,0.1115,0.1129,0.1132,0.1159,0.1266,0.1353,0.1448,0.1497,0.1495,0.1483,0.1473,0.1506,0.158,0.1579,0.1577,0.1577,0.1576,0.1069,0.1103,0.1145,0.1173,0.114,0.1135,0.1197,0.1269,0.1395,0.1417,0.1481,0.148,0.1436,0.1429,0.1457,0.1516,0.1516,0.1516,0.1516,0.108,0.1099,0.114,0.1141,0.1103,0.1105,0.1092,0.107,0.12,0.1235,0.1248,0.1114,0.1122,0.1053,0.1055,0.1073,0.1031,0.103,0.103,0.1085,0.1087,0.1117,0.1121,0.1058,0.108,0.1023,0.0847,0.0863,0.1013,0.1184,0.1479,0.1308,0.1311,0.1222,0.1218,0.1254,0,0]},{"header":{"parameterUnit":"m.s-1","parameterCategory":2,"la1":30.2992,"la2":30.254,"lo1":-89.0895,"lo2":-89.0443,"dy":0.0025,"dx":0.0025,"nx":19,"ny":19,"refTime":"2026-03-20T03:00:00:Z","depth":"2","parameterNumber":3,"parameterNumberName":"V-component_of_CURRENTS"},"data":[0,0,0,0.0038,0.0039,0.0149,0.015,0.0202,0.0202,0,0,0,0,0,0,0,0,0,0,0,0.0001,0.0002,0.0037,0.004,0.0149,0.015,0.0202,0.0202,0,0,0,0,0,0,0,0,0,0,0,0.0001,0.0002,0.0002,0.004,0.0149,0.015,0.0202,0.0145,0,0,0,0,0,0,0,0,0,0,0.0052,-0.0004,0.0002,0.0002,0.004,0.0149,0.015,0.0144,0.0149,0.012,0,0.013,0,0.0155,0.0201,0.0201,0,0,0,0.0059,-0.0008,0.0045,0.0002,0.0041,0.0149,0.0105,0.0148,0.0153,0.0126,0.0131,0.0133,0.0156,0.0201,0.0201,0.027,0.0271,0,0,0.0053,0.0,0.0041,0.0048,0.0057,0.0102,0.0108,0.0152,0.0135,0.0131,0.0135,0.0156,0.0201,0.0201,0.0269,0.027,0,0,0,0.0022,-0.0005,0.0049,0.0045,0.0066,0.0104,0.0112,0.0134,0.0158,0.0136,0.0157,0.0201,0.0201,0.0269,0.027,0.0318,0,0,0,0.002,-0.0023,0.0046,0.0013,0.0065,0.0105,0.0092,0.0156,0.0162,0.0157,0.0201,0.0201,0.0268,0.0269,0.0315,0.0388,0,0,0,-0.0001,-0.0026,-0.0011,0.001,0.0053,0.0106,0.0134,0.0159,0.0173,0.0201,0.0201,0.0267,0.0269,0.0312,0.0382,0.0526,0,0,0,-0.006,-0.003,-0.0013,0.0032,0.0051,0.0138,0.0134,0.0166,0.0188,0.0201,0.0268,0.027,0.0311,0.0378,0.0521,0.0476,0.0498,0,0,-0.0042,-0.0031,0.0007,0.0027,0.0122,0.0125,0.0216,0.0223,0.0213,0.0248,0.025,0.0316,0.0381,0.0525,0.0585,0.0604,0,0,0,0.0003,0.0029,0.0061,0.0115,0.017,0.0252,0.0249,0.027,0.0315,0.0233,0.0341,0.0383,0.0471,0.0432,0.0448,0.0279,0.0278,0.0278,0.0278,-0.0012,0.0051,0.0118,0.0203,0.025,0.032,0.0394,0.0426,0.0358,0.0393,0.0438,0.0608,0.0563,0.0576,0.0429,0.0429,0.0429,0.043,0.043,0.0055,0.0115,0.0175,0.0253,0.0336,0.0393,0.0522,0.0519,0.0642,0.0536,0.0619,0.0504,0.0596,0.0434,0.0433,0.0433,0.0432,0.0432,0.0432,0.0062,0.0102,0.0132,0.024,0.0346,0.0441,0.0637,0.0683,0.0723,0.0799,0.0788,0.0785,0.0682,0.0828,0.0829,0.083,0.0831,0.0831,0.0832,0.0059,0.0103,0.0138,0.024,0.0313,0.0471,0.0698,0.0837,0.093,0.0898,0.0898,0.0745,0.0732,0.0709,0.0847,0.0844,0.0842,0.0841,0.084,0.0122,0.0078,0.0156,0.021,0.0415,0.0626,0.0825,0.1067,0.1178,0.122,0.098,0.0971,0.098,0.0964,0.0949,0.1141,0.1141,0.1141,0.1141,0.0129,0.0125,0.0207,0.0318,0.0521,0.0725,0.1027,0.1121,0.114,0.105,0.1054,0.0892,0.0882,0.0876,0.0863,0.0841,0.1006,0.1006,0.1005,0.018,0.019,0.026,0.0344,0.0575,0.0861,0.1078,0.1046,0.0931,0.0998,0.1004,0.1137,0.09,0.0885,0.0869,0.085,0.0812,0,0]}],[{"header":{"parameterUnit":"m.s-1","parameterCategory":2,"la1":30.2992,"la2":30.254,"lo1":-89.0895,"lo2":-89.0443,"dy":0.0025,"dx":0.0025,"nx":19,"ny":19,"refTime":"2026-03-20T03:00:00:Z","depth":"4","parameterNumber":2,"parameterNumberName":"U-component_of_CURRENTS"},"data":[0,0,0,-0.0268,-0.0267,-0.0154,-0.0154,-0.005,-0.0049,0,0,0,0,0,0,0,0,0,0,0,-0.0313,-0.0313,-0.0268,-0.0266,-0.0154,-0.0154,-0.005,-0.0049,0,0,0,0,0,0,0,0,0,0,0,-0.0313,-0.0313,-0.0313,-0.0266,-0.0155,-0.0153,-0.005,-0.0119,0,0,0,0,0,0,0,0,0,0,-0.022,-0.0261,-0.0313,-0.0313,-0.0266,-0.0155,-0.0153,-0.0121,-0.0115,-0.012,0,-0.0122,0,-0.0093,-0.0045,-0.0045,0,0,0,-0.0242,-0.0267,-0.0245,-0.0313,-0.0265,-0.0155,-0.0198,-0.0117,-0.0109,-0.0111,-0.012,-0.0115,-0.0091,-0.0045,-0.0045,-0.0032,-0.0032,0,0,-0.0248,-0.0278,-0.025,-0.0241,-0.0262,-0.0202,-0.0195,-0.0112,-0.0112,-0.012,-0.0113,-0.0089,-0.0045,-0.0044,-0.0031,-0.0032,0,0,0,-0.0282,-0.0283,-0.0261,-0.0246,-0.0227,-0.0199,-0.0191,-0.0115,-0.0111,-0.0111,-0.0088,-0.0044,-0.0044,-0.0031,-0.0031,0.0034,0,0,0,-0.0285,-0.0305,-0.0265,-0.0279,-0.023,-0.0164,-0.0196,-0.0116,-0.0106,-0.0089,-0.0044,-0.0043,-0.0031,-0.0031,0.0033,0.0058,0,0,0,-0.0313,-0.0307,-0.0304,-0.0282,-0.0244,-0.0164,-0.0153,-0.0112,-0.0093,-0.0045,-0.0043,-0.0031,-0.0031,0.0032,0.0056,0.0106,0,0,0,-0.0332,-0.0343,-0.0305,-0.0306,-0.0246,-0.0203,-0.0153,-0.0113,-0.0078,-0.0044,-0.0031,-0.0031,0.0032,0.0054,0.0104,0.0055,0,0,0,-0.0357,-0.0347,-0.0346,-0.0309,-0.0272,-0.0215,-0.0176,-0.0113,-0.0089,-0.0056,-0.0055,0.0034,0.0055,0.0106,0.0014,0,0,0,0,-0.036,-0.0362,-0.0343,-0.0314,-0.0268,-0.0194,-0.0154,-0.0112,-0.0037,-0.0075,0.0001,0.0012,0.0043,0.0005,-0.0035,-0.0035,-0.0035,-0.0034,-0.0034,-0.0423,-0.0386,-0.037,-0.0321,-0.028,-0.0194,-0.0129,-0.0072,-0.0059,-0.0018,0.0042,0.009,0.0049,0.0016,0.0016,0.0016,0.0016,0.0017,0.0017,-0.045,-0.043,-0.0378,-0.0344,-0.026,-0.0203,-0.008,-0.0033,0.007,0.0065,0.0093,0.0046,0.0022,0.0021,0.002,0.002,0.0019,0.0019,0.0019,-0.0477,-0.0456,-0.0441,-0.0372,-0.0262,-0.0152,-0.0026,0.0063,0.0132,0.0173,0.0151,0.0135,0.0158,0.0208,0.0208,0.0208,0.0209,0.0209,0.0209,-0.0491,-0.0477,-0.0448,-0.0368,-0.0281,-0.0137,0.0038,0.0101,0.0182,0.0209,0.0208,0.0155,0.0149,0.0168,0.0214,0.0213,0.0213,0.0212,0.0212,-0.0489,-0.0489,-0.0447,-0.0391,-0.0215,-0.0115,0.0029,0.0148,0.0217,0.0249,0.0225,0.0223,0.0199,0.0192,0.0212,0.0274,0.0274,0.0273,0,-0.0482,-0.0483,-0.042,-0.0334,-0.0209,-0.0089,0.0024,0.0103,0.0178,0.018,0.0189,0.0156,0.0156,0.012,0.0114,0.0131,0,0,0,-0.0465,-0.0454,-0.0405,-0.034,-0.019,-0.0042,0.0058,0.009,0.018,0.021,0.0263,0.0265,0.0164,0.0229,0.0188,0.018,0.0209,0,0]},{"header":{"parameterUnit":"m.s-1","parameterCategory":2,"la1":30.2992,"la2":30.254,"lo1":-89.0895,"lo2":-89.0443,"dy":0.0025,"dx":0.0025,"nx":19,"ny":19,"refTime":"2026-03-20T03:00:00:Z","depth":"4","parameterNumber":3,"parameterNumberName":"V-component_of_CURRENTS"},"data":[0,0,0,0.0409,0.0409,0.0442,0.0442,0.0461,0.0462,0,0,0,0,0,0,0,0,0,0,0,0.0399,0.0399,0.0408,0.0409,0.0442,0.0442,0.0461,0.0462,0,0,0,0,0,0,0,0,0,0,0,0.0399,0.0399,0.04,0.0409,0.0442,0.0442,0.0461,0.0442,0,0,0,0,0,0,0,0,0,0,0.0412,0.0411,0.0399,0.04,0.041,0.0442,0.0442,0.0441,0.0443,0.0441,0,0.045,0,0.0456,0.0463,0.0463,0,0,0,0.0407,0.0409,0.0415,0.04,0.041,0.0442,0.0427,0.0442,0.0444,0.0443,0.0451,0.0452,0.0457,0.0463,0.0463,0.0516,0.0516,0,0,0.0405,0.0406,0.0414,0.0417,0.0425,0.0426,0.0428,0.0444,0.045,0.0451,0.0452,0.0457,0.0463,0.0463,0.0515,0.0516,0,0,0,0.0402,0.0405,0.0411,0.0416,0.0424,0.0427,0.0429,0.0449,0.0451,0.0452,0.0457,0.0463,0.0463,0.0515,0.0515,0.0497,0,0,0,0.04,0.0403,0.041,0.0411,0.0424,0.0441,0.0434,0.045,0.0452,0.0457,0.0463,0.0463,0.0514,0.0515,0.0496,0.0486,0,0,0,0.0396,0.0402,0.0407,0.0411,0.0426,0.0441,0.0443,0.045,0.0454,0.0463,0.0463,0.0514,0.0515,0.0495,0.0485,0.0474,0,0,0,0.0393,0.0409,0.0408,0.0439,0.0426,0.0465,0.0443,0.0482,0.0497,0.0463,0.0514,0.0515,0.0495,0.0485,0.0474,0.0443,0,0,0,0.041,0.0411,0.0432,0.0432,0.0465,0.046,0.0479,0.0492,0.0509,0.0505,0.0507,0.0496,0.0485,0.0474,0.0511,0,0,0,0,0.0436,0.0446,0.0461,0.0481,0.0504,0.0496,0.051,0.0505,0.0519,0.0521,0.0525,0.0519,0.0512,0.0496,0.0521,0.0521,0.052,0.052,0.052,0.0434,0.0457,0.0482,0.0501,0.0525,0.0527,0.0511,0.0507,0.0533,0.0544,0.0525,0.0533,0.0519,0.0551,0.0551,0.0551,0.0551,0.0551,0.0551,0.0451,0.0463,0.0487,0.0528,0.0524,0.055,0.0515,0.0512,0.0493,0.0527,0.052,0.0505,0.0549,0.055,0.055,0.055,0.055,0.055,0.055,0.0437,0.0443,0.0484,0.0534,0.0561,0.0573,0.0519,0.0509,0.05,0.0479,0.0495,0.0523,0.0499,0.0507,0.0507,0.0506,0.0506,0.0506,0.0506,0.0409,0.044,0.0481,0.0541,0.0581,0.0576,0.0551,0.0493,0.0494,0.0477,0.0506,0.0518,0.0519,0.0498,0.0505,0.0505,0.0505,0.0506,0.0506,0.0387,0.0407,0.0468,0.0511,0.0571,0.0542,0.0531,0.0458,0.0422,0.039,0.0457,0.046,0.0461,0.0463,0.0439,0.0429,0.0429,0.0429,0,0.0355,0.0371,0.0438,0.0491,0.0498,0.0503,0.0428,0.0379,0.0379,0.0406,0.039,0.0467,0.0469,0.0471,0.0473,0.0445,0,0,0,0.0326,0.0354,0.0376,0.0443,0.0473,0.0411,0.0391,0.0383,0.0414,0.0347,0.0419,0.0421,0.0407,0.0501,0.0508,0.051,0.0475,0,0]}]]